SCP
0 0 0 0 0 0 0 -1 -0 -0 -0 -0 -0 0 0 0 0 0 0 0 1 1 0 0 0 0 1 0 0 0 0 0 0 0 0 0 0 0 -0 -0 0 -0 -0
0 0 0 0 0 0 -0 -0 -0 -0 -0 -0 -0 0 0 0 0 0 0 -0 0 0 0 0 0 0 0 0 1 0 1 0 1 0 0 0 0 0 0 -0 -0 0 -0
-0 -0 0 0 0 0 0 -0 -0 -0 -0 -0 -0 0 0 0 -0 0 0 0 -0 -0 -0 0 0 0 0 1 1 1 0 0 1 0 0 0 0 0 0 -0 -0 -0 -0
-0 0 -0 -0 -0 0 0 0 0 -0 -0 -0 0 0 0 0 0 0 0 0 -0 -0 0 0 0 0 0 0 0 0 1 1 0 1 0 0 0 0 0 0 0 0 0
-0 -0 -0 -0 -0 0 0 0 0 0 -0 0 0 0 0 0 0 0 0 0 0 0 0 0 0 0 -0 -0 0 0 0 1 0 1 1 0 0 0 0 0 0 0 0
0 -0 0 0 -0 -0 0 0 0 0 0 0 0 0 0 0 0 0 0 0 0 0 0 0 0 0 0 -0 0 0 0 0 1 0 1 0 1 1 1 0 0 0 0
0 0 -0 -0 -0 -0 -0 -0 0 0 0 0 0 0 0 0 0 0 0 0 0 -0 0 0 -0 -0 0 -0 -0 0 0 0 1 1 1 1 1 1 2 1 0 0 0
0 0 -0 -0 -0 -0 -0 -0 -0 -0 0 0 0 0 0 0 0 0 0 0 0 0 -0 -0 -0 0 -0 -0 0 0 0 0 0 0 0 1 1 1 1 1 1 0 0
-0 -0 -0 -0 -0 -0 -0 0 0 0 0 0 0 0 0 0 0 0 0 0 0 0 0 -0 0 -0 0 0 0 0 0 0 0 0 0 1 1 1 1 0 1 1 1
-0 -0 -0 -0 -0 -0 0 0 0 0 0 0 0 0 0 0 0 0 0 0 0 0 0 0 0 0 0 0 0 0 0 0 0 0 0 0 0 0 0 0 1 1 0
-0 -0 -0 -0 -0 -0 0 0 1 1 1 0 0 0 0 0 -0 -0 0 -0 -0 -0 0 0 0 0 0 0 0 0 0 0 0 0 0 0 0 0 0 0 1 1 1
-0 -0 -0 -0 -0 0 0 1 1 1 1 0 0 0 -0 -0 -0 -0 0 0 -0 -0 -0 0 0 0 0 0 0 0 0 0 0 0 0 0 0 0 0 0 0 0 1
-0 -0 0 0 0 0 0 1 1 1 1 0 0 0 -0 -0 0 0 0 0 0 -0 -0 0 0 0 0 0 0 0 0 0 0 0 0 0 0 0 0 0 0 0 1
0 0 0 0 0 1 1 1 1 1 0 0 0 0 -0 -0 -0 0 0 0 0 0 0 0 0 0 0 0 0 0 0 0 0 0 0 0 0 0 0 0 0 0 0
1 1 1 1 1 1 1 1 1 1 0 0 0 0 0 0 0 0 0 0 0 0 0 0 0 0 -0 0 0 0 0 0 0 0 0 0 0 0 0 0 0 0 0
1 1 1 1 1 1 1 1 1 1 0 0 0 0 0 0 0 0 0 0 0 0 0 0 0 0 0 0 0 0 0 0 0 0 0 0 0 0 0 0 0 0 0
1 1 1 1 1 1 0 1 1 0 0 0 0 0 0 0 0 0 0 0 0 0 0 0 0 0 0 0 0 0 0 0 0 0 0 0 0 0 0 0 0 0 0
4 3 2 1 1 1 1 0 1 1 1 1 0 1 1 1 0 0 1 1 0 0 0 0 0 0 0 0 0 0 0 0 0 0 0 0 0 0 0 0 0 0 0
3 1 1 2 3 2 2 2 1 1 1 1 1 1 1 1 1 1 1 0 0 0 0 1 1 0 0 0 0 0 0 0 0 0 0 0 0 0 0 0 0 0 0
2 2 3 2 2 2 2 1 1 1 2 2 2 1 1 0 0 0 0 0 0 0 0 0 0 0 0 0 0 0 0 0 0 0 0 0 0 0 0 0 0 0 0
1 2 2 1 2 3 5 2 1 1 1 0 0 0 0 0 0 0 0 0 0 0 0 0 0 0 0 0 0 0 0 0 0 0 0 0 0 0 0 0 0 0 0
1 1 1 2 1 2 1 1 0 0 0 0 0 0 0 0 0 0 0 0 0 0 0 0 0 0 0 0 0 0 0 0 0 0 0 0 0 0 0 0 0 0 0
0 1 1 1 0 0 0 0 0 0 0 0 0 0 0 0 0 0 0 0 0 0 0 0 0 0 0 0 0 0 0 0 0 0 0 0 0 0 0 0 0 0 0
0 0 0 0 0 0 0 0 0 0 0 0 0 0 0 0 0 0 0 0 0 0 0 0 0 0 0 0 0 0 0 0 0 0 0 0 0 0 0 0 0 0 0
0 0 0 0 0 0 0 0 0 0 0 0 0 0 0 0 0 0 0 0 0 0 0 0 0 0 0 0 0 0 0 0 0 0 0 0 0 0 0 0 0 0 0
0 0 0 0 0 0 0 0 0 0 0 0 0 0 0 0 0 0 0 0 0 0 0 0 0 0 0 0 0 0 0 0 0 0 0 0 0 0 0 0 0 0 0
Wind_Speed_500mb
21 24 27 26 25 25 32 34 34 31 32 26 21 17 20 16 15 14 33 47 46 31 24 25 31 32 42 39 41 40 38 36 31 36 35 41 40 36 42 52 37 43 43
22 24 23 25 27 26 29 33 32 32 31 20 21 22 20 18 18 12 12 20 17 18 17 28 35 40 43 48 49 45 44 42 35 35 29 25 24 37 34 39 44 42 47
30 28 27 27 27 28 27 30 33 35 30 24 20 23 19 27 19 12 11 18 15 14 26 30 34 42 42 56 56 52 49 41 40 42 31 13 16 15 28 39 38 37 39
24 24 38 29 31 32 28 24 29 33 32 25 22 25 23 21 17 15 17 23 23 20 20 25 35 39 41 45 54 59 56 49 42 42 49 40 24 12 15 26 31 38 33
32 25 15 30 29 32 31 25 19 25 28 26 24 19 20 21 17 13 15 16 17 24 19 30 35 37 35 44 44 49 58 55 54 49 44 44 43 38 35 30 29 28 32
20 16 14 20 24 30 32 27 19 18 17 17 19 19 16 14 12 12 12 13 17 18 22 32 40 40 42 43 43 39 48 57 56 49 43 45 37 43 42 39 38 34 30
22 21 22 22 26 31 31 30 29 22 17 16 15 15 12 9 6 10 14 21 21 23 29 42 36 36 47 36 37 32 36 47 53 55 50 44 46 43 42 45 40 35 39
24 23 25 25 28 30 32 30 29 25 16 15 13 12 9 1 5 12 13 14 19 20 29 30 30 35 35 40 37 33 24 29 40 47 45 45 46 43 40 43 49 47 42
23 21 23 25 27 32 33 31 29 24 21 19 20 12 8 4 10 11 9 12 15 18 23 27 30 32 32 38 34 29 12 20 23 27 31 36 39 38 41 42 42 45 46
25 26 26 25 25 28 29 29 28 25 22 20 16 11 8 3 2 6 8 11 13 17 23 27 29 33 36 38 33 24 17 20 26 30 34 36 35 36 40 48 53 58 54
30 27 26 26 26 26 28 29 26 25 24 21 19 13 6 2 3 1 6 11 13 18 23 29 32 33 30 35 45 30 20 19 21 30 39 38 40 43 42 42 46 48 47
33 29 28 27 27 27 27 26 25 26 25 21 14 10 11 9 3 1 6 14 18 23 27 32 32 32 33 27 32 38 26 23 23 22 25 36 41 33 32 38 37 42 40
35 32 30 28 27 27 26 26 26 26 23 18 18 14 9 4 2 6 10 14 20 24 28 30 34 37 35 32 27 27 30 32 32 33 35 35 31 36 40 45 45 40 40
39 33 31 30 28 26 27 27 27 27 25 23 19 16 9 5 6 11 16 17 21 24 27 30 36 39 39 31 25 38 48 32 28 34 37 33 34 36 34 34 37 36 36
33 30 28 30 27 25 26 26 27 28 26 23 20 14 13 13 13 18 23 24 26 21 28 31 35 37 36 28 43 43 38 34 35 35 33 33 36 42 37 38 32 32 34
29 29 25 22 26 22 22 24 23 25 25 21 18 15 15 18 22 25 26 26 31 24 28 33 36 37 36 45 45 44 43 36 32 35 36 37 38 39 41 42 38 38 40
33 35 29 19 20 18 21 21 22 24 23 19 17 17 18 23 25 29 26 28 28 28 32 34 39 40 40 47 51 50 45 40 38 36 38 36 34 40 36 36 40 43 40
29 28 34 18 19 26 26 24 26 23 21 16 15 18 21 25 26 22 25 29 31 35 37 40 42 42 45 51 59 59 47 39 40 40 42 38 38 38 38 38 35 36 38
40 30 28 32 27 25 19 25 23 21 19 13 14 19 22 23 22 28 29 33 35 37 40 42 45 48 50 46 52 54 48 43 43 42 43 41 39 43 41 40 36 36 35
35 34 33 34 30 16 13 16 20 14 9 8 14 22 23 22 23 28 31 33 35 39 39 41 39 39 39 36 45 48 40 46 44 42 40 38 43 47 50 39 41 36 36
35 35 34 36 35 35 18 11 10 16 14 1 7 13 20 26 21 31 37 38 38 37 34 35 35 33 29 26 40 48 45 39 43 40 40 34 47 42 46 49 51 51 44
33 29 39 40 33 24 18 20 27 11 3 8 14 22 29 26 25 31 29 28 28 31 32 32 31 25 25 31 42 41 42 40 48 44 42 46 56 61 63 61 61 60 55
28 24 25 18 20 20 22 26 11 1 12 20 25 25 25 28 23 24 23 24 23 25 26 28 29 28 30 32 50 52 53 53 57 50 49 55 60 62 56 45 42 46 50
18 16 20 22 25 24 20 10 5 13 17 18 19 17 17 25 20 18 18 19 21 24 27 27 29 33 35 36 53 64 66 64 58 57 57 55 49 42 42 45 44 43 43
27 27 25 25 25 19 9 4 9 14 16 15 13 15 13 18 18 17 17 15 19 38 31 26 31 34 39 47 59 62 65 65 63 64 62 46 38 45 47 48 42 38 42
34 30 28 24 19 9 1 7 12 13 10 11 11 14 11 13 15 17 18 28 32 42 45 50 52 40 42 65 63 56 50 44 44 46 36 38 42 45 40 40 43 38 37
Wind_Direction_500mb
175 189 202 203 201 201 197 197 212 208 218 215 219 223 224 228 233 256 254 255 247 255 252 266 277 267 269 263 262 256 254 249 250 249 245 251 243 244 244 235 241 241 245
190 186 191 195 195 196 198 197 201 202 212 219 215 215 223 217 232 259 344 14 252 242 268 285 290 287 271 260 259 256 251 254 236 238 246 261 253 245 236 247 238 241 245
185 186 194 196 190 188 190 194 193 201 197 197 203 209 202 210 218 271 285 327 333 299 285 300 314 302 283 270 261 252 248 243 241 233 225 228 234 216 229 234 243 240 240
197 216 175 190 194 186 181 183 193 201 206 209 206 205 212 215 235 263 272 297 319 322 317 316 326 329 317 293 267 252 248 240 236 234 235 234 247 211 229 221 239 247 234
192 188 213 163 189 190 190 183 189 200 204 214 192 223 208 222 245 266 271 299 326 329 316 318 319 319 312 302 292 259 244 241 234 232 240 238 237 234 238 249 229 234 247
161 160 168 175 180 189 185 179 178 182 192 206 223 215 221 219 240 258 304 316 311 314 314 307 322 322 323 319 307 277 245 237 236 233 238 236 236 238 232 241 238 239 242
158 160 170 170 178 183 181 181 177 172 181 197 202 209 225 238 264 305 317 316 318 316 307 308 330 329 331 326 324 291 251 239 237 237 236 236 241 242 243 245 252 253 255
148 167 162 168 171 180 182 183 184 188 188 182 201 207 210 313 311 320 301 323 317 319 321 329 335 331 339 346 330 332 263 239 239 237 240 245 248 250 247 253 249 250 251
164 158 165 168 170 178 182 184 181 175 176 178 192 189 179 218 281 304 343 313 329 338 333 347 339 335 335 342 344 333 298 252 243 249 258 258 250 251 257 247 255 250 253
169 167 163 164 168 175 175 177 174 168 166 182 174 169 179 226 322 337 345 344 355 358 358 359 355 352 347 338 336 331 312 265 263 262 262 263 263 265 267 268 260 252 252
176 165 161 158 158 161 167 169 167 171 174 166 170 183 168 197 95 349 22 11 355 357 356 356 354 352 355 348 345 327 325 317 286 281 277 273 268 260 260 266 268 261 254
174 167 164 162 158 160 164 169 173 172 164 171 165 166 150 151 124 123 350 359 359 358 353 347 347 345 342 351 348 340 319 304 301 300 293 281 267 265 262 260 272 271 269
176 173 170 167 166 166 168 171 171 173 175 165 152 173 174 173 292 332 326 331 334 341 343 343 346 343 337 334 340 332 344 335 314 294 286 292 292 286 283 280 277 276 276
177 180 175 175 175 173 174 176 177 181 180 166 181 184 186 225 280 303 309 315 313 328 328 335 341 344 341 340 313 312 317 313 312 315 319 309 296 291 295 290 274 263 271
174 176 186 185 183 181 184 187 186 185 186 180 190 208 232 260 291 302 298 308 310 316 321 329 334 339 346 322 319 321 328 324 315 309 305 303 299 299 289 279 281 276 275
181 177 180 187 188 188 196 192 196 193 190 190 201 225 247 272 283 300 306 302 302 321 314 323 325 327 329 319 322 330 329 327 324 317 309 304 304 313 304 301 291 279 275
180 171 192 182 185 193 186 192 195 193 190 201 218 243 271 286 290 301 307 301 307 315 315 314 318 318 321 316 314 317 321 327 313 320 310 308 299 292 294 289 293 298 290
159 168 185 181 180 174 179 185 189 192 190 207 241 263 278 287 307 316 313 311 316 312 314 316 316 315 319 312 310 310 317 312 322 308 311 311 307 300 290 285 283 279 279
167 159 151 147 135 146 169 171 172 182 185 206 261 277 288 288 302 298 302 309 309 312 313 312 303 300 300 300 304 310 316 312 307 311 307 306 309 297 297 300 294 283 278
148 144 142 139 129 113 135 149 163 158 203 225 237 266 292 312 313 305 309 310 313 314 307 311 311 310 308 317 311 308 312 316 311 306 303 303 296 291 278 289 296 296 286
148 146 140 139 143 140 160 148 172 170 211 286 312 308 308 319 323 301 307 312 315 319 327 325 326 330 330 317 304 302 309 311 313 312 309 300 296 294 291 293 289 286 289
150 141 141 133 139 153 211 223 231 196 221 302 315 316 313 319 315 316 326 331 340 336 330 330 330 327 330 323 317 302 296 299 302 309 307 296 285 281 279 282 284 283 279
140 137 136 171 200 165 179 182 173 311 339 327 325 326 331 325 340 345 344 347 340 337 333 336 334 331 331 326 296 297 294 287 285 294 295 286 286 288 295 294 289 287 281
175 168 150 163 161 165 164 161 25 347 334 336 347 344 356 347 357 9 346 353 353 351 348 339 338 338 333 322 314 321 324 322 317 312 303 299 303 306 304 295 288 280 278
158 156 149 142 141 145 134 41 348 340 346 4 14 4 2 358 6 350 341 356 338 346 352 346 341 336 329 327 324 319 317 316 314 308 307 309 307 303 299 289 292 298 284
160 154 151 142 141 146 115 344 343 359 37 45 23 347 9 350 350 352 354 340 346 353 359 357 353 354 333 336 329 328 332 328 319 313 315 309 304 303 301 300 296 291 296
Wind_Speed_850mb
21 24 27 26 25 25 32 34 34 31 32 26 21 17 20 16 15 14 33 47 46 31 24 25 31 32 42 39 41 40 38 36 31 36 35 41 40 36 42 52 37 43 43
22 24 23 25 27 26 29 33 32 32 31 20 21 22 20 18 18 12 12 20 17 18 17 28 35 40 43 48 49 45 44 42 35 35 29 25 24 37 34 39 44 42 47
30 28 27 27 27 28 27 30 33 35 30 24 20 23 19 27 19 12 11 18 15 14 26 30 34 42 42 56 56 52 49 41 40 42 31 13 16 15 28 39 38 37 39
24 24 38 29 31 32 28 24 29 33 32 25 22 25 23 21 17 15 17 23 23 20 20 25 35 39 41 45 54 59 56 49 42 42 49 40 24 12 15 26 31 38 33
32 25 15 30 29 32 31 25 19 25 28 26 24 19 20 21 17 13 15 16 17 24 19 30 35 37 35 44 44 49 58 55 54 49 44 44 43 38 35 30 29 28 32
20 16 14 20 24 30 32 27 19 18 17 17 19 19 16 14 12 12 12 13 17 18 22 32 40 40 42 43 43 39 48 57 56 49 43 45 37 43 42 39 38 34 30
22 21 22 22 26 31 31 30 29 22 17 16 15 15 12 9 6 10 14 21 21 23 29 42 36 36 47 36 37 32 36 47 53 55 50 44 46 43 42 45 40 35 39
24 23 25 25 28 30 32 30 29 25 16 15 13 12 9 1 5 12 13 14 19 20 29 30 30 35 35 40 37 33 24 29 40 47 45 45 46 43 40 43 49 47 42
23 21 23 25 27 32 33 31 29 24 21 19 20 12 8 4 10 11 9 12 15 18 23 27 30 32 32 38 34 29 12 20 23 27 31 36 39 38 41 42 42 45 46
25 26 26 25 25 28 29 29 28 25 22 20 16 11 8 3 2 6 8 11 13 17 23 27 29 33 36 38 33 24 17 20 26 30 34 36 35 36 40 48 53 58 54
30 27 26 26 26 26 28 29 26 25 24 21 19 13 6 2 3 1 6 11 13 18 23 29 32 33 30 35 45 30 20 19 21 30 39 38 40 43 42 42 46 48 47
33 29 28 27 27 27 27 26 25 26 25 21 14 10 11 9 3 1 6 14 18 23 27 32 32 32 33 27 32 38 26 23 23 22 25 36 41 33 32 38 37 42 40
35 32 30 28 27 27 26 26 26 26 23 18 18 14 9 4 2 6 10 14 20 24 28 30 34 37 35 32 27 27 30 32 32 33 35 35 31 36 40 45 45 40 40
39 33 31 30 28 26 27 27 27 27 25 23 19 16 9 5 6 11 16 17 21 24 27 30 36 39 39 31 25 38 48 32 28 34 37 33 34 36 34 34 37 36 36
33 30 28 30 27 25 26 26 27 28 26 23 20 14 13 13 13 18 23 24 26 21 28 31 35 37 36 28 43 43 38 34 35 35 33 33 36 42 37 38 32 32 34
29 29 25 22 26 22 22 24 23 25 25 21 18 15 15 18 22 25 26 26 31 24 28 33 36 37 36 45 45 44 43 36 32 35 36 37 38 39 41 42 38 38 40
33 35 29 19 20 18 21 21 22 24 23 19 17 17 18 23 25 29 26 28 28 28 32 34 39 40 40 47 51 50 45 40 38 36 38 36 34 40 36 36 40 43 40
29 28 34 18 19 26 26 24 26 23 21 16 15 18 21 25 26 22 25 29 31 35 37 40 42 42 45 51 59 59 47 39 40 40 42 38 38 38 38 38 35 36 38
40 30 28 32 27 25 19 25 23 21 19 13 14 19 22 23 22 28 29 33 35 37 40 42 45 48 50 46 52 54 48 43 43 42 43 41 39 43 41 40 36 36 35
35 34 33 34 30 16 13 16 20 14 9 8 14 22 23 22 23 28 31 33 35 39 39 41 39 39 39 36 45 48 40 46 44 42 40 38 43 47 50 39 41 36 36
35 35 34 36 35 35 18 11 10 16 14 1 7 13 20 26 21 31 37 38 38 37 34 35 35 33 29 26 40 48 45 39 43 40 40 34 47 42 46 49 51 51 44
33 29 39 40 33 24 18 20 27 11 3 8 14 22 29 26 25 31 29 28 28 31 32 32 31 25 25 31 42 41 42 40 48 44 42 46 56 61 63 61 61 60 55
28 24 25 18 20 20 22 26 11 1 12 20 25 25 25 28 23 24 23 24 23 25 26 28 29 28 30 32 50 52 53 53 57 50 49 55 60 62 56 45 42 46 50
18 16 20 22 25 24 20 10 5 13 17 18 19 17 17 25 20 18 18 19 21 24 27 27 29 33 35 36 53 64 66 64 58 57 57 55 49 42 42 45 44 43 43
27 27 25 25 25 19 9 4 9 14 16 15 13 15 13 18 18 17 17 15 19 38 31 26 31 34 39 47 59 62 65 65 63 64 62 46 38 45 47 48 42 38 42
34 30 28 24 19 9 1 7 12 13 10 11 11 14 11 13 15 17 18 28 32 42 45 50 52 40 42 65 63 56 50 44 44 46 36 38 42 45 40 40 43 38 37
Wind_Direction_850mb
175 189 202 203 201 201 197 197 212 208 218 215 219 223 224 228 233 256 254 255 247 255 252 266 277 267 269 263 262 256 254 249 250 249 245 251 243 244 244 235 241 241 245
190 186 191 195 195 196 198 197 201 202 212 219 215 215 223 217 232 259 344 14 252 242 268 285 290 287 271 260 259 256 251 254 236 238 246 261 253 245 236 247 238 241 245
185 186 194 196 190 188 190 194 193 201 197 197 203 209 202 210 218 271 285 327 333 299 285 300 314 302 283 270 261 252 248 243 241 233 225 228 234 216 229 234 243 240 240
197 216 175 190 194 186 181 183 193 201 206 209 206 205 212 215 235 263 272 297 319 322 317 316 326 329 317 293 267 252 248 240 236 234 235 234 247 211 229 221 239 247 234
192 188 213 163 189 190 190 183 189 200 204 214 192 223 208 222 245 266 271 299 326 329 316 318 319 319 312 302 292 259 244 241 234 232 240 238 237 234 238 249 229 234 247
161 160 168 175 180 189 185 179 178 182 192 206 223 215 221 219 240 258 304 316 311 314 314 307 322 322 323 319 307 277 245 237 236 233 238 236 236 238 232 241 238 239 242
158 160 170 170 178 183 181 181 177 172 181 197 202 209 225 238 264 305 317 316 318 316 307 308 330 329 331 326 324 291 251 239 237 237 236 236 241 242 243 245 252 253 255
148 167 162 168 171 180 182 183 184 188 188 182 201 207 210 313 311 320 301 323 317 319 321 329 335 331 339 346 330 332 263 239 239 237 240 245 248 250 247 253 249 250 251
164 158 165 168 170 178 182 184 181 175 176 178 192 189 179 218 281 304 343 313 329 338 333 347 339 335 335 342 344 333 298 252 243 249 258 258 250 251 257 247 255 250 253
169 167 163 164 168 175 175 177 174 168 166 182 174 169 179 226 322 337 345 344 355 358 358 359 355 352 347 338 336 331 312 265 263 262 262 263 263 265 267 268 260 252 252
176 165 161 158 158 161 167 169 167 171 174 166 170 183 168 197 95 349 22 11 355 357 356 356 354 352 355 348 345 327 325 317 286 281 277 273 268 260 260 266 268 261 254
174 167 164 162 158 160 164 169 173 172 164 171 165 166 150 151 124 123 350 359 359 358 353 347 347 345 342 351 348 340 319 304 301 300 293 281 267 265 262 260 272 271 269
176 173 170 167 166 166 168 171 171 173 175 165 152 173 174 173 292 332 326 331 334 341 343 343 346 343 337 334 340 332 344 335 314 294 286 292 292 286 283 280 277 276 276
177 180 175 175 175 173 174 176 177 181 180 166 181 184 186 225 280 303 309 315 313 328 328 335 341 344 341 340 313 312 317 313 312 315 319 309 296 291 295 290 274 263 271
174 176 186 185 183 181 184 187 186 185 186 180 190 208 232 260 291 302 298 308 310 316 321 329 334 339 346 322 319 321 328 324 315 309 305 303 299 299 289 279 281 276 275
181 177 180 187 188 188 196 192 196 193 190 190 201 225 247 272 283 300 306 302 302 321 314 323 325 327 329 319 322 330 329 327 324 317 309 304 304 313 304 301 291 279 275
180 171 192 182 185 193 186 192 195 193 190 201 218 243 271 286 290 301 307 301 307 315 315 314 318 318 321 316 314 317 321 327 313 320 310 308 299 292 294 289 293 298 290
159 168 185 181 180 174 179 185 189 192 190 207 241 263 278 287 307 316 313 311 316 312 314 316 316 315 319 312 310 310 317 312 322 308 311 311 307 300 290 285 283 279 279
167 159 151 147 135 146 169 171 172 182 185 206 261 277 288 288 302 298 302 309 309 312 313 312 303 300 300 300 304 310 316 312 307 311 307 306 309 297 297 300 294 283 278
148 144 142 139 129 113 135 149 163 158 203 225 237 266 292 312 313 305 309 310 313 314 307 311 311 310 308 317 311 308 312 316 311 306 303 303 296 291 278 289 296 296 286
148 146 140 139 143 140 160 148 172 170 211 286 312 308 308 319 323 301 307 312 315 319 327 325 326 330 330 317 304 302 309 311 313 312 309 300 296 294 291 293 289 286 289
150 141 141 133 139 153 211 223 231 196 221 302 315 316 313 319 315 316 326 331 340 336 330 330 330 327 330 323 317 302 296 299 302 309 307 296 285 281 279 282 284 283 279
140 137 136 171 200 165 179 182 173 311 339 327 325 326 331 325 340 345 344 347 340 337 333 336 334 331 331 326 296 297 294 287 285 294 295 286 286 288 295 294 289 287 281
175 168 150 163 161 165 164 161 25 347 334 336 347 344 356 347 357 9 346 353 353 351 348 339 338 338 333 322 314 321 324 322 317 312 303 299 303 306 304 295 288 280 278
158 156 149 142 141 145 134 41 348 340 346 4 14 4 2 358 6 350 341 356 338 346 352 346 341 336 329 327 324 319 317 316 314 308 307 309 307 303 299 289 292 298 284
160 154 151 142 141 146 115 344 343 359 37 45 23 347 9 350 350 352 354 340 346 353 359 357 353 354 333 336 329 328 332 328 319 313 315 309 304 303 301 300 296 291 296